Карточка аэропорта ULOO

Внимание!
Информация на этой странице в стадии наполнения.
Если вы не увидели какой-то информации, или заметили неточность - пожалуйста сообщите нам!
Спасибо!
Команда RU-STAFF
Название аэропортаПсков (Кресты)
Название аэропорта (англ.)Pskov (Kresty)
Превышение47 ft. (14.3 m.)
Координаты57°46.914', 28°23.652'
Высота перехода1000m
Эшелон переходаFL50-FL70
Коды ответчика1000
Зона ОрВДСанкт-Петербург РПИ (ULLL)
Данные METARULOO 211900Z 18001MPS 9999 FEW048 18/18 Q1010 R19/090058 NOSIG RMK QFE753
Проноз погоды (TAF)ULOO 211654Z 2118/2203 30003MPS 6000 BKN020 TEMPO 2118/2120 3100 -SHRA FEW005 BKN016CB TEMPO 2120/2203 0300 FG SCT003
NOTAMshow/hide NOTAM
AWOS   TABLE

Информация о ВПП

ВПП Длина ВПП (м.) Покрытие Курс ВПП Частота ILS
012524Асфальтобетон9 
192524Асфальтобетон189 

Диспетчерские позиции


Сценарии



Спутниковое изображение